[[{"header":{"parameterUnit":"m.s-1","parameterCategory":1,"la1":30.2991,"la2":30.254,"lo1":-89.0895,"lo2":-89.0444,"dy":0.0017,"dx":0.0017,"nx":28,"ny":28,"refTime":"2026-03-04T03:00:00:Z","depth":0,"parameterNumber":2,"parameterNumberName":"U-component_of_WINDS"},"data":[0,0,0,0,0,0,0,0,0,0,0,0,0,0,0,0,0,0,0,0,0,0,0,0,0,0,0,0,0,0,0,0,0,0,0,0,0,0,0,0,0,0,0,0,0,0,0,0,0,0,0,0,0,0,0,0,0,0,-3.4592,-3.4593,0,-3.4656,-3.4656,-3.4657,-3.4611,-3.4609,-3.4607,-3.4605,-3.4671,-3.4674,-3.4678,0,0,0,0,0,0,0,0,0,0,0,0,0,-3.4433,-3.4436,-3.4592,-3.4593,-3.4594,-3.4656,-3.4656,-3.4657,-3.4612,-3.4609,-3.4607,-3.4604,-3.467,-3.4674,-3.4678,0,0,0,0,0,0,0,0,0,0,0,0,0,-3.45,-3.4437,-3.4592,-3.4578,-3.4578,-3.4655,-3.4656,-3.4658,-3.4612,-3.4609,-3.4606,-3.4603,-3.4668,-3.4674,-3.4679,-3.4773,0,0,-3.4696,-3.4698,0,0,0,0,0,0,0,0,-3.4496,-3.4506,-3.458,-3.4579,-3.4579,-3.4622,-3.4624,-3.4696,-3.4613,-3.4599,-3.4605,-3.4602,-3.4657,-3.4663,-3.4682,-3.4776,-3.4779,-3.4696,-3.4699,-3.4702,-3.4703,0,0,0,0,0,0,0,-3.4492,-3.4503,-3.4617,-3.4581,-3.458,-3.457,-3.4576,-3.4638,-3.4644,-3.46,-3.4597,-3.4605,-3.4656,-3.4677,-3.4683,-3.478,-3.4696,-3.4701,-3.4704,-3.4706,-3.4957,-3.4961,0,0,0,0,0,0,-3.4488,-3.4499,-3.4615,-3.4619,-3.4529,-3.4575,-3.4582,-3.4612,-3.4644,-3.4646,-3.4608,-3.4603,-3.4669,-3.4677,-3.4685,-3.4799,-3.4702,-3.4707,-3.471,-3.4954,-3.4958,-3.4962,0,0,0,0,0,0,-3.4485,-3.4499,-3.4613,-3.4558,-3.4572,-3.4581,-3.4615,-3.4614,-3.4635,-3.4649,-3.465,-3.4627,-3.4667,-3.4678,-3.4752,-3.48,-3.4709,-3.4714,-3.495,-3.4955,-3.496,-3.5026,0,0,0,0,0,0,-3.448,-3.4498,-3.4533,-3.4559,-3.4575,-3.4678,-3.4618,-3.4618,-3.4644,-3.4638,-3.4668,-3.467,-3.4665,-3.4744,-3.4758,-3.4806,-3.4718,-3.4946,-3.4952,-3.4958,-3.502,-3.5033,-3.5044,0,0,0,0,0,-3.4475,-3.4549,-3.4535,-3.4549,-3.4619,-3.4681,-3.469,-3.4683,-3.4648,-3.4684,-3.4694,-3.4669,-3.4793,-3.4752,-3.4767,-3.4818,-3.4943,-3.495,-3.4958,-3.5014,-3.503,-3.5044,0,0,0,0,0,0,-3.4527,-3.4552,-3.4537,-3.4622,-3.465,-3.4673,-3.4718,-3.47,-3.4738,-3.4731,-3.4721,-3.4729,-3.4807,-3.482,-3.4774,-3.4912,-3.4863,-3.4873,-3.49,-3.4916,-3.4928,-3.4923,-3.4723,0,0,0,0,0,-3.4549,-3.4597,-3.4616,-3.4689,-3.4703,-3.4709,-3.4735,-3.4728,-3.4756,-3.4768,-3.4783,-3.4812,-3.4857,-3.4887,-3.493,-3.5022,-3.5028,-3.5065,-3.5077,-3.5087,-3.5096,-3.5147,-3.5163,-3.4987,-3.4987,-3.4987,0,0,-3.4594,-3.4613,-3.4643,-3.47,-3.472,-3.477,-3.4719,-3.4773,-3.481,-3.4776,-3.4847,-3.486,-3.4891,-3.4976,-3.5013,-3.4989,-3.5146,-3.5097,-3.5104,-3.5108,-3.5156,-3.5173,-3.5188,-3.4992,-3.4991,-3.499,0,0,-3.4701,-3.472,-3.4783,-3.4806,-3.4838,-3.4842,-3.4857,-3.4884,-3.4891,-3.4963,-3.4938,-3.4983,-3.5061,-3.5085,-3.5108,-3.5227,-3.5206,-3.5242,-3.5305,-3.5355,-3.5369,-3.5381,-3.5424,-3.5439,-3.5251,-3.5251,-3.5251,0,-3.4752,-3.4826,-3.4818,-3.4875,-3.4901,-3.4873,-3.4938,-3.496,-3.5005,-3.5024,-3.4996,-3.5096,-3.5115,-3.5205,-3.5234,-3.5253,-3.5271,-3.5237,-3.5367,-3.5379,-3.5391,-3.5432,-3.5448,-3.5255,-3.5255,-3.5254,-3.5254,0,-3.4888,-3.494,-3.4987,-3.5032,-3.5063,-3.5124,-3.5126,-3.5159,-3.515,-3.5157,-3.5232,-3.5254,-3.5302,-3.5323,-3.5314,-3.5412,-3.5396,-3.5368,-3.5318,-3.5412,-3.545,-3.5466,-3.5261,-3.526,-3.5259,-3.5258,0,0,-3.5027,-3.5068,-3.5086,-3.5107,-3.5142,-3.5182,-3.5242,-3.5289,-3.5318,-3.5351,-3.5401,-3.547,-3.5445,-3.5471,-3.5465,-3.5509,-3.5603,-3.5476,-3.5476,-3.5498,-3.5713,-3.5733,-3.5751,-3.5589,-3.5592,-3.5595,-3.571,0,-3.5135,-3.524,-3.5236,-3.5334,-3.5383,-3.5359,-3.5411,-3.5439,-3.5448,-3.5491,-3.5501,-3.5549,-3.5513,-3.5528,-3.5571,-3.5582,-3.5646,-3.5574,-3.5637,-3.5639,-3.5628,-3.5771,-3.5792,-3.59,-3.5725,-3.5728,-3.573,0,-3.5275,-3.5313,-3.5416,-3.5446,-3.5466,-3.5514,-3.5557,-3.5599,-3.5631,-3.5634,-3.5664,-3.5652,-3.5714,-3.5664,-3.575,-3.5702,-3.5727,-3.5738,-3.5742,-3.5746,-3.5689,-3.5779,-3.5934,-3.595,-3.5753,-3.5751,-3.5749,0,-3.5366,-3.5444,-3.5516,-3.5534,-3.5571,-3.5605,-3.5622,-3.565,-3.568,-3.5718,-3.5737,-3.5783,-3.5807,-3.5843,-3.5844,-3.5807,-3.5932,-3.5881,-3.5937,-3.5937,-3.5963,-3.5961,-3.6123,-3.5981,-3.5981,-3.598,-3.598,0,-3.5487,-3.5551,-3.5557,-3.5601,-3.5673,-3.5669,-3.574,-3.5754,-3.578,-3.5827,-3.581,-3.5854,-3.5853,-3.5899,-3.5901,-3.5972,-3.5984,-3.5988,-3.5988,-3.5989,-3.5989,-3.6005,-3.5997,-3.5985,-3.5984,-3.5983,-3.5982,0,-3.56,-3.5607,-3.5683,-3.5713,-3.5722,-3.5773,-3.5798,-3.5841,-3.5849,-3.5909,-3.5923,-3.5936,-3.5989,-3.5994,-3.6056,-3.6057,-3.6143,-3.6135,-3.6132,-3.6131,-3.6186,-3.618,-3.6364,-3.6388,-3.6231,-3.6232,-3.6233,0,-3.5676,-3.5725,-3.576,-3.579,-3.5809,-3.5858,-3.5888,-3.5888,-3.592,-3.5961,-3.5999,-3.6051,-3.6092,-3.6178,-3.6194,-3.6241,-3.6233,-3.6295,-3.624,-3.6241,-3.6234,-3.6231,-3.6236,-3.6305,-3.6306,-3.6308,-3.6309,0,-3.581,-3.5812,-3.5856,-3.5902,-3.5939,-3.5975,-3.6009,-3.6035,-3.6038,-3.6076,-3.613,-3.6162,-3.6226,-3.6278,-3.6325,-3.6343,-3.6327,-3.6326,-3.6342,-3.6343,-3.6339,-3.6342,-3.616,-3.6322,-3.632,-3.6319,-3.6319,-3.6318,-3.5907,-3.5949,-3.5981,-3.6032,-3.6057,-3.609,-3.6132,-3.6146,-3.6192,-3.6244,-3.6241,-3.6301,-3.6334,-3.6396,-3.6418,-3.6466,-3.6445,-3.6467,-3.6473,-3.6478,-3.6484,-3.6333,-3.6474,-3.6474,-3.6474,-3.6473,-3.6473,0,-3.604,-3.606,-3.6106,-3.6155,-3.6195,-3.6178,-3.6215,-3.6249,-3.6303,-3.6335,-3.6376,-3.644,-3.6491,-3.6511,-3.6561,-3.6596,-3.659,-3.6609,-3.6605,-3.661,-3.6499,-3.6481,-3.6613,-3.6613,-3.6613,-3.6613,-3.6613,-3.6613,-3.6113,-3.6185,-3.6191,-3.6276,-3.6296,-3.6355,-3.6378,-3.6409,-3.6435,-3.6506,-3.6549,-3.6562,-3.659,-3.6642,-3.6689,-3.6693,-3.6712,-3.6735,-3.6736,-3.6632,-3.6618,-3.6604,-3.6587,-3.6739,-3.6739,-3.6843,-3.6844,-3.6845]},{"header":{"parameterUnit":"m.s-1","parameterCategory":1,"la1":30.2991,"la2":30.254,"lo1":-89.0895,"lo2":-89.0444,"dy":0.0017,"dx":0.0017,"nx":28,"ny":28,"refTime":"2026-03-04T03:00:00:Z","depth":0,"parameterNumber":3,"parameterNumberName":"V-component_of_WINDS"},"data":[0,0,0,0,0,0,0,0,0,0,0,0,0,0,0,0,0,0,0,0,0,0,0,0,0,0,0,0,0,0,0,0,0,0,0,0,0,0,0,0,0,0,0,0,0,0,0,0,0,0,0,0,0,0,0,0,0,0,0.324,0.3241,0,0.334,0.3341,0.3342,0.3428,0.3429,0.343,0.343,0.3531,0.3533,0.3535,0,0,0,0,0,0,0,0,0,0,0,0,0,0.3121,0.3123,0.3239,0.3241,0.3242,0.334,0.3341,0.3343,0.3427,0.3429,0.343,0.3431,0.3531,0.3533,0.3535,0,0,0,0,0,0,0,0,0,0,0,0,0,0.3192,0.3123,0.3239,0.3296,0.3302,0.334,0.3341,0.3343,0.3427,0.3429,0.343,0.3431,0.353,0.3533,0.3535,0.3524,0,0,0.3544,0.3545,0,0,0,0,0,0,0,0,0.3188,0.3196,0.3287,0.3292,0.3299,0.3373,0.3337,0.3403,0.3427,0.338,0.343,0.3432,0.3477,0.3484,0.35,0.3528,0.3533,0.3544,0.3545,0.3547,0.3547,0,0,0,0,0,0,0,0.3183,0.3192,0.3279,0.3288,0.3296,0.3317,0.3328,0.335,0.3419,0.3384,0.339,0.3401,0.3481,0.3497,0.3503,0.3534,0.3544,0.3546,0.3548,0.3549,0.3561,0.356,0,0,0,0,0,0,0.3169,0.3188,0.3276,0.3282,0.3246,0.3318,0.3331,0.3348,0.3419,0.3432,0.34,0.3405,0.3492,0.35,0.3507,0.35,0.3547,0.3549,0.3551,0.3562,0.3561,0.3559,0,0,0,0,0,0,0.3166,0.3176,0.3272,0.3237,0.3251,0.3318,0.3337,0.3349,0.3365,0.3431,0.3444,0.3404,0.3493,0.3503,0.352,0.3505,0.355,0.3553,0.3564,0.3562,0.356,0.3485,0,0,0,0,0,0,0.3163,0.3175,0.3171,0.3236,0.3252,0.3283,0.3336,0.335,0.337,0.3377,0.3438,0.345,0.3495,0.3515,0.3522,0.3509,0.3555,0.3565,0.3563,0.3561,0.3489,0.348,0.3473,0,0,0,0,0,0.3158,0.3145,0.317,0.318,0.3249,0.3282,0.3291,0.3344,0.3368,0.3365,0.3408,0.3448,0.3505,0.3516,0.3525,0.3512,0.3567,0.3564,0.3561,0.3492,0.3482,0.3473,0,0,0,0,0,0,0.3075,0.3154,0.3183,0.3191,0.3229,0.3296,0.3294,0.3331,0.3363,0.3368,0.3432,0.3445,0.3455,0.3485,0.3496,0.3506,0.3541,0.354,0.3486,0.3477,0.3469,0.3462,0.3557,0,0,0,0,0,0.3057,0.3077,0.3146,0.3146,0.3164,0.3225,0.3241,0.3279,0.3321,0.3338,0.3382,0.342,0.3448,0.3464,0.3492,0.3494,0.3509,0.349,0.3482,0.3475,0.3473,0.3478,0.3471,0.355,0.355,0.355,0,0,0.3021,0.3067,0.3076,0.313,0.3164,0.3184,0.3238,0.3256,0.3272,0.334,0.3359,0.3393,0.3441,0.345,0.3456,0.3476,0.3455,0.3471,0.3465,0.3467,0.3475,0.3467,0.3461,0.3548,0.3548,0.3548,0,0,0.2966,0.3002,0.3007,0.3041,0.3092,0.3134,0.3135,0.3197,0.3222,0.3243,0.3295,0.3315,0.3359,0.3392,0.3414,0.3374,0.3412,0.3381,0.334,0.3345,0.3339,0.3334,0.3321,0.3315,0.3379,0.3379,0.3379,0,0.2914,0.2946,0.3004,0.3021,0.3044,0.3108,0.3114,0.3143,0.3201,0.3216,0.3237,0.3296,0.3332,0.3352,0.3342,0.3357,0.3362,0.3375,0.3335,0.333,0.3326,0.3315,0.331,0.3375,0.3375,0.3376,0.3376,0,0.2881,0.2903,0.2901,0.2957,0.298,0.299,0.305,0.3067,0.3103,0.3142,0.3163,0.321,0.325,0.3257,0.3292,0.3282,0.3292,0.3323,0.336,0.3314,0.3304,0.33,0.3369,0.3371,0.3372,0.3373,0,0,0.2775,0.2865,0.2863,0.289,0.2953,0.2971,0.2985,0.3025,0.3039,0.3077,0.3091,0.3129,0.3159,0.3184,0.3223,0.3227,0.3195,0.3258,0.326,0.3246,0.3188,0.3165,0.3159,0.322,0.322,0.3219,0.3185,0,0.2731,0.2761,0.2814,0.2827,0.2849,0.2912,0.2924,0.2964,0.3002,0.3026,0.3068,0.3094,0.313,0.3147,0.3153,0.3197,0.3184,0.32,0.3235,0.3235,0.3222,0.3154,0.313,0.3095,0.3181,0.3181,0.318,0,0.2683,0.2719,0.2734,0.2798,0.2809,0.2819,0.2862,0.2884,0.2931,0.2959,0.2988,0.3032,0.3051,0.3085,0.3113,0.3123,0.314,0.3164,0.3164,0.317,0.3205,0.3159,0.3085,0.308,0.3175,0.3175,0.3176,0,0.2605,0.2658,0.2675,0.2696,0.277,0.2776,0.2807,0.2856,0.2878,0.2915,0.293,0.2968,0.2989,0.3018,0.3071,0.309,0.3094,0.3131,0.3118,0.3117,0.3116,0.3115,0.3045,0.3125,0.3126,0.3126,0.3126,0,0.2551,0.2558,0.2641,0.2651,0.2662,0.2724,0.2733,0.277,0.2813,0.2832,0.2888,0.2904,0.2974,0.2998,0.304,0.3058,0.3067,0.309,0.3101,0.3086,0.3083,0.3098,0.3102,0.3124,0.3125,0.3125,0.3125,0,0.2466,0.2522,0.2545,0.2614,0.2631,0.2636,0.2696,0.2708,0.275,0.2774,0.2783,0.2848,0.288,0.2937,0.2984,0.3013,0.3023,0.3041,0.3007,0.3014,0.2999,0.3,0.2936,0.2931,0.3013,0.3012,0.3012,0,0.2428,0.2435,0.2506,0.2523,0.2553,0.2579,0.2602,0.2664,0.2686,0.2742,0.2748,0.2785,0.2818,0.2867,0.2919,0.2956,0.2977,0.2952,0.2983,0.2968,0.2978,0.2978,0.2979,0.2945,0.2944,0.2943,0.2942,0,0.2355,0.2383,0.2414,0.2456,0.2482,0.2517,0.2555,0.2566,0.2637,0.2658,0.2693,0.2719,0.2769,0.2806,0.2851,0.2884,0.2925,0.2932,0.2931,0.2916,0.2896,0.2908,0.2989,0.2933,0.2934,0.2935,0.2935,0.2935,0.2293,0.2304,0.2356,0.2389,0.2425,0.246,0.2476,0.2521,0.2551,0.2598,0.2632,0.2665,0.2714,0.278,0.281,0.2837,0.2855,0.2853,0.2853,0.2852,0.2847,0.2891,0.2845,0.2845,0.2845,0.2846,0.2846,0,0.2225,0.2262,0.2292,0.2345,0.2371,0.2409,0.2454,0.2474,0.2502,0.2545,0.2577,0.2617,0.2654,0.2709,0.275,0.2761,0.2781,0.277,0.277,0.2777,0.2827,0.2824,0.2753,0.2753,0.2753,0.2753,0.2753,0.2753,0.2192,0.2212,0.2246,0.2286,0.2323,0.2356,0.2379,0.2412,0.2447,0.249,0.2521,0.2557,0.2606,0.2651,0.2686,0.2702,0.2715,0.2697,0.2719,0.2765,0.2773,0.2781,0.2779,0.27,0.2699,0.2667,0.2667,0.2666]}]]